This demonstration page uses our WeatherBlox Daily Observations layout. Learn more.

Left ArrowRight Arrow

39.51506, -84.39828

Hourly Observations for December 25, 2015

Temp ( °F °C ) Dew Point ( °F °C ) Humidity (%) Winds ( mph kmh ) Pressure ( in mb ) Visibility ( mi km ) Precip ( " mm )
12:15 am 00:15 Mostly Cloudy 49 9.6 46 7.5 87 87 N N/A 30.06 1018 10 16.0934 N/A
12:35 am 00:35 Cloudy 49 9.6 45 7.2 85 85 N N/A 30.06 1018 10 16.0934 N/A
12:55 am 00:55 Cloudy 49 9.6 45 7 84 84 N N/A 30.06 1018 10 16.0934 N/A
1:15 am 01:15 Mostly Cloudy 49 9.6 46 7.5 87 87 N N/A 30.06 1018 10 16.0934 N/A
1:35 am 01:35 Mostly Cloudy 49 9.6 46 7.5 87 87 N N/A 30.06 1018 10 16.0934 N/A
1:55 am 01:55 Mostly Cloudy 49 9.6 46 7.5 87 87 N N/A 30.06 1018 10 16.0934 N/A
2:15 am 02:15 Partly Cloudy 49 9.6 45 7.2 85 85 N N/A 30.06 1018 10 16.0934 N/A
2:35 am 02:35 Clear 49 9.6 46 7.5 87 87 NW 3 6 30.06 1018 10 16.0934 N/A
2:55 am 02:55 Clear 55 12.5 50 9.9 84 84 N N/A 30.09 1019 10 16.0934 N/A
3:15 am 03:15 Clear 55 12.5 49 9.7 83 83 SSE 3 6 30.09 1019 10 16.0934 N/A
3:35 am 03:35 Clear 55 12.5 50 9.9 84 84 N N/A 30.09 1019 10 16.0934 N/A
3:55 am 03:55 Partly Cloudy 52 11 48 8.9 87 87 N N/A 30.09 1019 10 16.0934 N/A
4:15 am 04:15 Partly Cloudy 51 10.3 47 8.2 87 87 N N/A 30.09 1019 10 16.0934 N/A
4:35 am 04:35 Clear 51 10.3 47 8.5 89 89 N N/A 30.09 1019 10 16.0934 N/A
4:55 am 04:55 Clear 49 9.6 46 7.9 89 89 N N/A 30.12 1020 10 16.0934 N/A
5:15 am 05:15 Partly Cloudy 50 9.8 47 8.1 89 89 N N/A 30.12 1020 10 16.0934 N/A
5:35 am 05:35 Partly Cloudy 49 9.6 46 8 90 90 N N/A 30.12 1020 10 16.0934 N/A
5:55 am 05:55 Partly Cloudy 49 9.6 46 8 90 90 N N/A 30.12 1020 10 16.0934 N/A
6:15 am 06:15 Clear 49 9.6 46 8 90 90 N 3 6 30.12 1020 10 16.0934 N/A
6:35 am 06:35 Clear 50 10.1 47 8.3 89 89 N 8 13 30.12 1020 10 16.0934 N/A
6:55 am 06:55 Partly Cloudy 55 12.5 46 8 74 74 N 6 9 30.12 1020 10 16.0934 N/A
7:15 am 07:15 Partly Cloudy 55 12.5 46 7.7 73 73 N 7 11 30.12 1020 10 16.0934 N/A
7:35 am 07:35 Clear 53 11.5 43 6 69 69 N 5 7 30.15 1021 10 16.0934 N/A
7:55 am 07:55 Partly Cloudy 52 11 42 5.6 70 70 N N/A 30.15 1021 10 16.0934 N/A
8:15 am 08:15 Partly Cloudy 52 11 42 5.8 71 71 N 6 9 30.15 1021 10 16.0934 N/A
8:35 am 08:35 Partly Cloudy 52 11 42 5.8 71 71 NNE 5 7 30.15 1021 10 16.0934 N/A
8:55 am 08:55 Cloudy 51 10.8 42 5.8 71 71 N 5 7 30.15 1021 10 16.0934 N/A
9:15 am 09:15 Cloudy 52 11 43 6.1 72 72 ESE 3 6 30.21 1023 10 16.0934 N/A
9:35 am 09:35 Mostly Cloudy 52 11 43 6 72 72 ENE 5 7 30.18 1022 10 16.0934 N/A
9:55 am 09:55 Partly Cloudy 52 11 43 6.1 72 72 NNE 5 7 30.18 1022 10 16.0934 N/A
10:15 am 10:15 Partly Cloudy 52 11 42 5.7 70 70 N 3 6 30.21 1023 10 16.0934 N/A
10:35 am 10:35 Partly Cloudy 53 11.8 44 6.5 70 70 N 8 13 30.21 1023 10 16.0934 N/A
10:55 am 10:55 Partly Cloudy 55 12.5 44 6.7 68 68 N 10 17 30.21 1023 10 16.0934 N/A
11:15 am 11:15 Partly Cloudy 52 11 41 5.2 68 68 N 10 17 30.21 1023 10 16.0934 N/A
11:35 am 11:35 Sunny 52 11 41 4.9 66 66 N 6 9 30.21 1023 10 16.0934 N/A
11:55 am 11:55 Sunny 52 11 41 4.9 66 66 N 3 6 30.21 1023 10 16.0934 N/A
12:15 pm 12:15 Sunny 52 11 40 4.7 65 65 N N/A 30.21 1023 10 16.0934 N/A
12:35 pm 12:35 Mostly Cloudy 52 11 40 4.5 65 65 NNE 10 17 30.21 1023 10 16.0934 N/A
12:55 pm 12:55 Mostly Cloudy 55 12.5 42 5.6 63 63 NE 10 17 30.18 1022 10 16.0934 N/A
1:15 pm 13:15 Partly Cloudy 55 12.5 42 5.6 63 63 NNE 9 15 30.18 1022 10 16.0934 N/A
1:35 pm 13:35 Sunny 55 12.5 42 5.6 63 63 NNE 9 15 30.18 1022 10 16.0934 N/A
1:55 pm 13:55 Sunny 55 12.5 42 5.5 63 63 NNE 8 13 30.18 1022 10 16.0934 N/A
2:15 pm 14:15 Sunny 55 12.5 42 5.6 63 63 N 7 11 30.21 1023 10 16.0934 N/A
2:35 pm 14:35 Sunny 55 12.5 41 4.9 60 60 NE 8 13 30.21 1023 10 16.0934 N/A
2:55 pm 14:55 Sunny 55 12.5 40 4.6 59 59 NNE 9 15 30.21 1023 10 16.0934 N/A
3:15 pm 15:15 Sunny 55 12.5 40 4.6 59 59 N 10 17 30.21 1023 10 16.0934 N/A
3:35 pm 15:35 Partly Cloudy 55 12.5 40 4.6 59 59 N 9 15 30.21 1023 10 16.0934 N/A
3:55 pm 15:55 Mostly Cloudy 55 12.5 41 5 61 61 N 9 15 30.24 1024 10 16.0934 N/A
4:15 pm 16:15 Cloudy 55 12.5 41 5.1 61 61 N 8 13 30.24 1024 10 16.0934 N/A
4:35 pm 16:35 Cloudy 55 12.5 41 5.2 61 61 NNE 7 11 30.24 1024 10 16.0934 N/A
4:55 pm 16:55 Cloudy 55 12.5 42 5.5 63 63 N 8 13 30.24 1024 10 16.0934 N/A
5:15 pm 17:15 Cloudy 52 11 40 4.6 65 65 NNE 6 9 30.24 1024 10 16.0934 N/A
5:35 pm 17:35 Mostly Cloudy 51 10.3 40 4.3 67 67 NNE 8 13 30.24 1024 10 16.0934 N/A
5:55 pm 17:55 Partly Cloudy 49 9.6 39 4 68 68 NNE 6 9 30.24 1024 10 16.0934 N/A
6:15 pm 18:15 Clear 49 9.6 39 4 68 68 NNE 7 11 30.27 1025 10 16.0934 N/A
6:35 pm 18:35 Clear 49 9.6 39 4.1 69 69 NNE 7 11 30.27 1025 10 16.0934 N/A
6:55 pm 18:55 Partly Cloudy 49 9.6 40 4.3 70 70 NNE 9 15 30.27 1025 10 16.0934 N/A
7:15 pm 19:15 Partly Cloudy 49 9.6 40 4.3 70 70 NE 7 11 30.27 1025 10 16.0934 N/A
7:35 pm 19:35 Partly Cloudy 49 9.6 40 4.2 69 69 NNE 9 15 30.27 1025 10 16.0934 N/A
7:55 pm 19:55 Clear 49 9.6 40 4.4 70 70 NNE 10 17 30.27 1025 10 16.0934 N/A
8:15 pm 20:15 Clear 49 9.6 40 4.7 72 72 NNE 8 13 30.3 1026 10 16.0934 N/A
8:35 pm 20:35 Clear 49 9.6 40 4.7 72 72 NE 9 15 30.27 1025 10 16.0934 N/A
8:55 pm 20:55 Partly Cloudy 49 9.6 41 4.9 73 73 NE 9 15 30.27 1025 10 16.0934 N/A
9:15 pm 21:15 Partly Cloudy 49 9.6 41 5 73 73 NE 9 15 30.27 1025 10 16.0934 N/A
9:35 pm 21:35 Partly Cloudy 47 8.2 39 3.9 75 75 NE 8 13 30.3 1026 10 16.0934 N/A
9:55 pm 21:55 Mostly Cloudy 47 8.2 39 4 75 75 NNE 8 13 30.3 1026 10 16.0934 N/A
10:15 pm 22:15 Mostly Cloudy 47 8.2 39 4 75 75 NNE 7 11 30.3 1026 10 16.0934 N/A
10:35 pm 22:35 Mostly Cloudy 47 8.2 39 3.7 74 74 NE 7 11 30.3 1026 10 16.0934 N/A
10:55 pm 22:55 Mostly Cloudy 47 8.2 38 3.6 73 73 NE 6 9 30.3 1026 10 16.0934 N/A
11:15 pm 23:15 Mostly Cloudy 47 8.3 38 3.5 72 72 NNE 8 13 30.3 1026 10 16.0934 N/A
11:35 pm 23:35 Cloudy 49 9.3 39 4.1 70 70 NE 6 9 30.3 1026 10 16.0934 N/A
11:55 pm 23:55 Cloudy 49 9.6 39 4 68 68 NE 8 13 30.3 1026 10 16.0934 N/A

Powered by AerisWeather